Flag for Germany Weather past 2 weeks in Minden, North Rhine-Westphalia, Germany

Now
39 °F

Chilly.


Feels Like: 27 °F
Forecast: 40 / 46 °F
Wind: 30 mph from Northwest

Location: Bueckeburg

Current Time: Dec 20, 2014 at 4:26:48 PM

Latest Report: Dec 20, 2014 at 3:20 PM


Visibility: 1 mi

Pressure: 29.92 "Hg

Humidity: 81%

Dew point: 34 °F

Location of MindenLocation

Historic Weather in Minden — Graph

°F

Minden temperature yesterday

Maximum temperature yesterday: 54 °F (at 12:20 AM)
Minimum temperature yesterday: 43 °F (at 9:20 PM)
Average temperature yesterday: 49 °F

Past Weeks' High & Low Weather Summary

 TemperatureHumidityPressure
High54 °F (Dec 18, 2:20 PM)94% (Dec 18, 12:20 AM)30.36 "Hg (Dec 18, 12:20 AM)
Low34 °F (Dec 14, 9:20 PM)61% (Dec 10, 5:20 AM)29.30 "Hg (Dec 12, 3:20 PM)
Average42 °F84%29.88 "Hg
* Reported Dec 5 3:20 PM — Dec 20 3:20 PM, Minden, Weather by CustomWeather, © 2014

Note: Actual official high and low records may vary slightly from our data, if they occured in-between our weather recording intervals... More about our weather records

Advertising

Minden weather history for previous 24 hours

 ConditionsComfort  
Time TempWeatherWind HumidityBarometerVisibility
3:20 PM
Dec 20
39 °FChilly.30 mph81%29.92 "Hg1 mi
2:20 PM45 °FQuite cool.22 mph81%29.86 "Hg6 mi
1:20 PM45 °FQuite cool.22 mph81%29.86 "Hg6 mi
12:20 PM43 °FQuite cool.22 mph87%29.89 "Hg4 mi
11:20 AM43 °FQuite cool.22 mph81%29.92 "Hg6 mi
10:20 AM43 °FQuite cool.21 mph81%29.92 "Hg3 mi
9:20 AM43 °FQuite cool.22 mph81%29.95 "Hg6 mi
8:20 AM43 °FQuite cool.21 mph81%29.95 "Hg6 mi
7:20 AM43 °FQuite cool.20 mph81%29.95 "HgN/A
6:20 AM43 °FQuite cool.22 mph76%29.98 "HgN/A
5:20 AM43 °FQuite cool.22 mph76%29.98 "HgN/A
4:20 AM43 °FQuite cool.22 mph81%29.98 "HgN/A
3:20 AM43 °FQuite cool.20 mph81%29.98 "HgN/A
2:20 AM43 °FQuite cool.20 mph76%29.98 "HgN/A
1:20 AM43 °FQuite cool.20 mph81%29.98 "HgN/A
12:20 AM41 °FQuite cool.14 mph87%29.98 "Hg5 mi
11:20 PM
Dec 19
43 °FQuite cool.18 mph81%29.95 "HgN/A
10:20 PM43 °FQuite cool.20 mph81%29.95 "HgN/A
9:20 PM43 °FQuite cool.17 mph76%29.92 "HgN/A
8:20 PM45 °FQuite cool.18 mph71%29.92 "HgN/A
7:20 PM45 °FQuite cool.17 mph71%29.89 "HgN/A
6:20 PM45 °FQuite cool.16 mph76%29.86 "HgN/A
5:20 PM45 °FQuite cool.12 mph76%29.83 "HgN/A
4:20 PM45 °FQuite cool.17 mph76%29.83 "HgN/A
Weather by CustomWeather, © 2014

See weather overviewHow to use our weather pages